Athens Eleftherios, Greece

4:12 AM EEST on April 25, 2018 (GMT +0300)
Eleftherios Venizelos International

Weather History for LGAV - July, 2013

Change the Weather History Date:

Friday, July 26, 2013

  Actual Average (LGAT) Record (LGAT)
Temperature  
Mean Temperature 78 °F -  
Max Temperature 93 °F 91 °F 100 °F (1998)
Min Temperature 64 °F 74 °F 73 °F (1996)
Cooling Degree Days 14    
Growing Degree Days 28 (Base 50)    
Moisture  
Dew Point 53 °F    
Average Humidity 39    
Maximum Humidity 64    
Minimum Humidity 21    
Precipitation  
Precipitation 0.00 in - - ()
Sea Level Pressure  
Sea Level Pressure 29.88 in    
Wind  
Wind Speed 5 mph ()    
Max Wind Speed 18 mph    
Max Gust Speed -    
Visibility 6.2 miles    
Events      
Averages and records for this station are not official NWS values.
T = Trace of Precipitation, MM = Missing Value Source: Averaged Metar Reports

Daily Weather History Graph

Daily Weather History Graph

Search for Another Location

Airport or City:

Astronomy

Jul. 26, 2013 Rise Set
Actual Time 6:22 AM EEST 8:38 PM EEST
Civil Twilight 5:52 AM EEST 9:08 PM EEST
Nautical Twilight 5:16 AM EEST 9:44 PM EEST
Astronomical Twilight 4:36 AM EEST 10:24 PM EEST
Moon 10:48 PM EEST (7/26) 10:32 AM EEST (7/26)
Length of Visible Light 15h 15m
Length of Day
14h 16m
Waning Gibbous, 83% of the Moon is Illuminated
Jul 26
Waning Gibbous
Jul 29
Last Quarter
Aug 7
New
Aug 14
First Quarter
Aug 21
Full

Hourly Weather History & Observations

Time (EEST) Temp. Heat Index Dew Point Humidity Pressure Visibility Wind Dir Wind Speed Gust Speed Precip Events Conditions
12:20 AM 71.6 °F - 55.4 °F 57% 29.92 in - Variable 3.5 mph - N/A   Clear
12:50 AM 75.2 °F - 55.4 °F 50% 29.92 in - West 2.3 mph - N/A   Clear
1:20 AM 71.6 °F - 55.4 °F 57% 29.89 in - Calm Calm - N/A   Clear
1:50 AM 71.6 °F - 55.4 °F 57% 29.89 in - WNW 3.5 mph - N/A   Clear
2:20 AM 68.0 °F - 53.6 °F 60% 29.89 in - Variable 2.3 mph - N/A   Clear
2:50 AM 69.8 °F - 55.4 °F 60% 29.89 in - West 3.5 mph - N/A   Clear
3:20 AM 71.6 °F - 55.4 °F 57% 29.89 in - Calm Calm - N/A   Clear
3:50 AM 68.0 °F - 53.6 °F 60% 29.89 in - Calm Calm - N/A   Clear
4:20 AM 68.0 °F - 51.8 °F 56% 29.89 in - Variable 1.2 mph - N/A   Clear
4:50 AM 71.6 °F - 51.8 °F 50% 29.89 in - Variable 1.2 mph - N/A   Clear
5:20 AM 69.8 °F - 51.8 °F 53% 29.89 in - Calm Calm - N/A   Clear
5:50 AM 64.4 °F - 51.8 °F 64% 29.89 in - Calm Calm - N/A   Clear
6:20 AM 71.6 °F - 50.0 °F 46% 29.89 in - Calm Calm - N/A   Clear
6:50 AM 71.6 °F - 50.0 °F 46% 29.89 in - West 4.6 mph - N/A   Clear
7:20 AM 71.6 °F - 48.2 °F 43% 29.89 in - Calm Calm - N/A   Clear
7:50 AM 77.0 °F - 48.2 °F 36% 29.89 in - Calm Calm - N/A   Clear
8:20 AM 80.6 °F - 50.0 °F 34% 29.89 in - Calm Calm - N/A   Clear
8:50 AM 84.2 °F - 51.8 °F 33% 29.89 in - Variable 1.2 mph - N/A   Clear
9:20 AM 84.2 °F - 51.8 °F 33% 29.89 in - Variable 3.5 mph - N/A   Clear
9:50 AM 86.0 °F 86.6 °F 62.6 °F 45% 29.89 in - ESE 5.8 mph - N/A   Clear
10:20 AM 87.8 °F 86.1 °F 55.4 °F 33% 29.89 in - East 9.2 mph - N/A   Clear
10:50 AM 87.8 °F - 50.0 °F 27% 29.89 in - NE 10.4 mph - N/A   Clear
11:20 AM 89.6 °F - 50.0 °F 26% 29.89 in - NE 13.8 mph - N/A   Clear
11:50 AM 91.4 °F - 46.4 °F 21% 29.89 in 6.2 mi NE 13.8 mph - N/A   Partly Cloudy
12:20 PM 93.2 °F - 48.2 °F 21% 29.89 in 6.2 mi NE 17.3 mph - N/A   Partly Cloudy
12:50 PM 91.4 °F - 48.2 °F 23% 29.89 in 6.2 mi NE 18.4 mph - N/A   Partly Cloudy
1:20 PM 93.2 °F - 50.0 °F 23% 29.89 in 6.2 mi NE 17.3 mph - N/A   Partly Cloudy
1:50 PM 93.2 °F - 51.8 °F 24% 29.89 in 6.2 mi ENE 17.3 mph - N/A   Partly Cloudy
2:20 PM 91.4 °F - 50.0 °F 24% 29.86 in 6.2 mi NE 18.4 mph - N/A   Partly Cloudy
2:50 PM 91.4 °F - 51.8 °F 26% 29.86 in 6.2 mi NE 17.3 mph - N/A   Partly Cloudy
3:20 PM 93.2 °F - 51.8 °F 24% 29.86 in 6.2 mi East 13.8 mph - N/A   Partly Cloudy
3:50 PM 93.2 °F - 51.8 °F 24% 29.86 in 6.2 mi ENE 16.1 mph - N/A   Partly Cloudy
4:20 PM 91.4 °F - 51.8 °F 26% 29.86 in 6.2 mi ENE 15.0 mph - N/A   Partly Cloudy
4:50 PM 91.4 °F - 51.8 °F 26% 29.86 in 6.2 mi ENE 13.8 mph - N/A   Partly Cloudy
5:20 PM 89.6 °F 87.3 °F 53.6 °F 29% 29.86 in 6.2 mi ENE 15.0 mph - N/A   Partly Cloudy
5:50 PM 91.4 °F 89.1 °F 53.6 °F 28% 29.86 in 6.2 mi ENE 10.4 mph - N/A   Partly Cloudy
6:20 PM 89.6 °F 87.3 °F 53.6 °F 29% 29.86 in 6.2 mi NE 11.5 mph - N/A   Partly Cloudy
6:50 PM 89.6 °F - 51.8 °F 27% 29.83 in 6.2 mi NE 15.0 mph - N/A   Partly Cloudy
7:20 PM 87.8 °F - 51.8 °F 29% 29.86 in - NE 13.8 mph - N/A   Clear
7:50 PM 87.8 °F - 51.8 °F 29% 29.86 in - NNE 11.5 mph - N/A   Clear
8:20 PM 86.0 °F - 51.8 °F 31% 29.86 in - NNE 10.4 mph - N/A   Clear
8:50 PM 82.4 °F 81.4 °F 53.6 °F 37% 29.86 in - North 6.9 mph - N/A   Clear
9:20 PM 84.2 °F 83.5 °F 57.2 °F 40% 29.86 in - North 5.8 mph - N/A   Clear
9:50 PM 82.4 °F 81.7 °F 55.4 °F 39% 29.86 in - North 4.6 mph - N/A   Clear
10:20 PM 82.4 °F 82.0 °F 57.2 °F 42% 29.86 in - NNE 4.6 mph - N/A   Clear
10:50 PM 78.8 °F - 57.2 °F 47% 29.89 in - Variable 1.2 mph - N/A   Clear
11:20 PM 77.0 °F - 55.4 °F 47% 29.86 in - Variable 1.2 mph - N/A   Clear
11:50 PM 73.4 °F - 55.4 °F 53% 29.86 in - NW 4.6 mph - N/A   Clear